カタログに戻る

UWE-1

運用中アマチュア無線SSO
NORAD 28892·PAYLOAD·🇩🇪 Germany

打ち上げ Oct 27, 2005 から Plesetsk Cosmodrome

Loading…

次のパス (今後24時間)

TLE

最新Source: Space-Track

元期: Sep 14, 2026, 08:51 UTC

1 28892U 05043C   26257.36938339  .00000918  00000-0  15359-3 0  9991
2 28892  98.3187  55.5263 0012502 289.2800  70.7054 14.72299342114880

AllMySatでUWE-1をリアルタイム追跡

Download on the App Store